THURAYA-3 (32404 NORAD) Tracking and Keplerian Element Data

This shows tracking and keplerian element data for the satellite.

Feedback or suggestion? Click here.




ElementValue
Catalog32404
NameTHURAYA-3
Epoch Orbit4338
Epoch Day316.76659911
Epoch Year2019
RAAN6.0371
Inclination3.7796
Eccentricity0.0004859
Argument of Perigee217.9755
Mean Anonmoly202.0901
Mean Motion1.00271164
Decay Rate-2.89E-06
L11 32404U 08001A 19316.76659911 -.00000289 00000-0 00000+0 0 9995
L22 32404 3.7796 6.0371 0004859 217.9755 202.0901 1.00271164 43380

Live tracking and technical data element details for THURAYA-3 (NORAD 32404). THURAYA-3 can be tracked NOW for your location showing map with azimuth and elevation plus other details from your city location.

Track the satellite on the map from your city or location and see movement details for azimuth, elevation, latitude, longitude, range, height, and movement on the map or in text.







IsCatalogInMostPopularTable: catalog: 32404, numindb: 619
Update: records affected: 1



GetName: 32404 THURAYA-3

Hit Count: updated at: Wed, 13 Nov 2019 18:33:54 GMT